{"data":{"norad_id":65880,"epoch":"2026-05-25T03:26:55.875264Z","epoch_age_seconds":62344,"freshness":"FRESH","line1":"1 65880U 25223AC  26145.14370226  .00015085  00000+0  45655-3 0  9990","line2":"2 65880  53.1599 298.8645 0001012  77.8292 282.2824 15.34409084 35916","mean_motion":15.34409084,"eccentricity":0.0001012,"inclination_deg":53.1599,"raan_deg":298.8645,"arg_perigee_deg":77.8292,"mean_anomaly_deg":282.2824,"bstar":0.00045655,"rev_number":3591,"period_min":93.847202484367,"perigee_km":461.98395047797,"apogee_km":463.36853107791,"semimajor_km":6840.8132407779,"source":"CELESTRAK","updated_at":"2026-05-25T13:38:20.977975Z"}}